FW4118 Weather Reports


time (UTC)temp
C
wind
direction
speed
KPH
gust
KPH
rain 1hr
cm
rain 24hr
cm
rain mn
cm
humidity
%
barometer
mb
20260504012308 6 232 0.0 4.8 0.00 0.00 0.00
20260504011309 6 198 0.0 0.0 0.00 0.00 0.00
20260504010808 6 198 0.0 0.0 0.00 0.00 0.00
20260504010308 7 198 0.0 0.0 0.00 0.00 0.00
20260504005808 7 198 0.0 3.2 0.00 0.00 0.00
20260504004808 7 246 0.0 0.0 0.00 0.00 0.00
20260504004309 8 246 0.0 1.6 0.00 0.00 0.00
20260504003808 8 252 3.2 8.0 0.00 0.00 0.00
20260504003308 8 228 1.6 4.8 0.00 0.00 0.00
20260504002809 8 234 1.6 8.0 0.00 0.00 0.00
20260504001309 10 280 1.6 8.0 0.00 0.00 0.00
20260504000808 11 291 4.8 12.9 0.00 0.00 0.00
20260504000309 11 286 4.8 14.5 0.00 0.00 0.00
20260503235808 11 298 9.7 19.3 0.00 0.00 0.00
20260503235308 11 281 9.7 14.5 0.00 0.00 0.00
20260503234808 11 296 6.4 12.9 0.00 0.00 0.00
20260503234309 11 282 6.4 12.9 0.00 0.00 0.00
20260503233809 12 282 8.0 14.5 0.00 0.00 0.00
20260503232809 12 299 6.4 19.3 0.00 0.00 0.00
20260503232308 12 304 12.9 24.1 0.00 0.00 0.00
20260503231808 12 306 9.7 25.7 0.00 0.00 0.00
20260503231308 12 302 14.5 22.5 0.00 0.00 0.00
20260503230808 12 307 11.3 19.3 0.00 0.00 0.00
20260503230309 12 291 11.3 22.5 0.00 0.00 0.00
20260503225808 12 293 9.7 16.1 0.00 0.00 0.00
20260503225310 13 279 8.0 22.5 0.00 0.00 0.00
20260503224808 13 298 14.5 22.5 0.00 0.00 0.00
20260503224308 13 285 12.9 20.9 0.00 0.00 0.00
20260503223809 13 296 11.3 24.1 0.00 0.00 0.00
20260503223309 14 302 11.3 22.5 0.00 0.00 0.00
20260503222809 14 295 14.5 24.1 0.00 0.00 0.00
20260503222309 13 299 11.3 20.9 0.00 0.00 0.00
20260503221808 13 296 11.3 25.7 0.00 0.00 0.00
20260503221309 13 301 9.7 22.5 0.00 0.00 0.00
20260503220809 13 292 11.3 19.3 0.00 0.00 0.00
20260503215808 15 301 19.3 37.0 0.00 0.00 0.00
20260503215308 15 302 14.5 29.0 0.00 0.00 0.00
20260503214809 15 302 11.3 22.5 0.00 0.00 0.00
20260503213808 15 282 16.1 32.2 0.00 0.00 0.00
20260503212308 14 303 6.4 20.9 0.00 0.00 0.00
20260503211809 14 302 14.5 29.0 0.00 0.00 0.00
20260503210808 13 295 8.0 20.9 0.00 0.00 0.00
20260503210308 13 291 11.3 22.5 0.00 0.00 0.00
20260503205808 13 291 11.3 24.1 0.00 0.00 0.00
20260503205309 14 295 11.3 22.5 0.00 0.00 0.00
20260503204808 14 302 11.3 25.7 0.00 0.00 0.00
20260503204308 15 289 11.3 24.1 0.00 0.00 0.00
20260503203308 15 307 11.3 22.5 0.00 0.00 0.00
20260503202808 14 307 12.9 22.5 0.00 0.00 0.00
20260503201809 15 305 14.5 20.9 0.00 0.00 0.00
20260503200809 15 299 19.3 25.7 0.00 0.00 0.00
20260503200309 16 306 14.5 35.4 0.00 0.00 0.00
20260503195809 15 311 16.1 33.8 0.00 0.03 0.00
20260503195308 15 309 16.1 24.1 0.00 0.03 0.00
20260503194808 16 311 16.1 25.7 0.00 0.03 0.00
20260503194308 15 307 14.5 22.5 0.00 0.03 0.00
20260503193808 16 299 12.9 27.4 0.00 0.03 0.00
20260503192808 15 294 22.5 38.6 0.00 0.03 0.00
20260503192308 14 301 19.3 33.8 0.00 0.03 0.00
20260503191808 15 318 20.9 33.8 0.00 0.03 0.00
20260503191308 15 290 14.5 25.7 0.00 0.03 0.00
20260503190808 15 271 12.9 22.5 0.00 0.03 0.00
20260503190308 14 296 9.7 16.1 0.00 0.03 0.00
20260503185808 14 288 16.1 24.1 0.00 0.03 0.00
20260503183309 13 307 12.9 22.5 0.00 0.03 0.00
20260503182308 13 320 11.3 25.7 0.00 0.03 0.00
20260503181808 12 314 14.5 24.1 0.00 0.03 0.00
20260503181308 13 306 20.9 29.0 0.00 0.03 0.00
20260503180308 15 291 14.5 27.4 0.00 0.03 0.00
20260503175808 13 306 14.5 25.7 0.00 0.03 0.00
20260503174808 13 324 16.1 32.2 0.00 0.03 0.00
20260503174308 12 313 12.9 33.8 0.00 0.03 0.00
20260503173308 13 318 14.5 35.4 0.00 0.03 0.00
20260503172808 13 310 14.5 25.7 0.00 0.03 0.00
20260503172308 13 314 11.3 25.7 0.00 0.03 0.00
20260503171808 12 300 22.5 33.8 0.00 0.03 0.00
20260503171308 13 275 16.1 27.4 0.00 0.03 0.00
20260503170808 12 314 16.1 27.4 0.00 0.03 0.00
20260503150807 10 308 14.5 29.0 0.00 0.03 0.00
20260503140308 9 301 17.7 25.7 0.00 0.03 0.00
20260503131309 8 293 11.3 25.7 0.00 0.03 0.00
20260503130809 8 278 4.8 14.5 0.00 0.03 0.00
20260503130309 8 244 4.8 12.9 0.00 0.03 0.00
20260503110309 2 307 3.2 9.7 0.00 0.03 0.00
20260503090308 2 317 1.6 11.3 0.00 0.03 0.00
20260503080809 1 356 0.0 0.0 0.00 0.03 0.00
20260503080308 1 356 0.0 0.0 0.00 0.03 0.00
20260503072808 1 356 0.0 0.0 0.00 0.03 0.00
20260503072308 1 356 0.0 0.0 0.00 0.03 0.00
20260503071808 2 356 0.0 0.0 0.00 0.03 0.00
20260503071309 2 356 0.0 4.8 0.00 0.03 0.00
20260503070308 2 319 0.0 0.0 0.00 0.03 0.00
20260503060308 1 301 0.0 1.6 0.00 0.03 0.00
20260503054308 3 318 0.0 11.3 0.00 0.03 0.00
20260503053808 3 316 3.2 11.3 0.00 0.03 0.00
20260503053309 3 312 1.6 8.0 0.00 0.03 0.00
20260503052809 3 311 0.0 3.2 0.00 0.03 0.00
20260503051308 4 294 3.2 11.3 0.00 0.03 0.00
20260503050309 5 343 1.6 9.7 0.00 0.03 0.00
20260503045808 5 308 4.8 11.3 0.00 0.03 0.00
20260503045308 4 318 3.2 12.9 0.00 0.05 0.00
20260503044809 5 294 0.0 3.2 0.00 0.05 0.00
20260503044309 5 291 1.6 9.7 0.00 0.10 0.00
20260503043308 4 313 0.0 0.0 0.00 0.18 0.00
20260503042308 4 288 0.0 0.0 0.00 0.28 0.00
20260503041309 5 288 0.0 0.0 0.00 0.30 0.00
20260503040808 5 288 0.0 0.0 0.00 0.30 0.00
20260503040308 5 288 0.0 0.0 0.00 0.30 0.00
20260503035808 5 288 0.0 0.0 0.00 0.30 0.30
20260503035308 5 288 0.0 0.0 0.00 0.30 0.30
20260503034808 5 288 0.0 4.8 0.00 0.30 0.30
20260503034308 5 287 0.0 8.0 0.00 0.30 0.30
20260503033809 5 287 0.0 4.8 0.00 0.30 0.30
20260503032808 5 295 1.6 8.0 0.00 0.30 0.30
20260503032308 5 301 6.4 11.3 0.00 0.30 0.30
20260503031309 5 303 3.2 9.7 0.00 0.30 0.30
20260503030809 5 335 0.0 8.0 0.00 0.33 0.30
20260503030309 5 306 0.0 0.0 0.00 0.33 0.30
20260503025808 5 306 0.0 0.0 0.00 0.33 0.30
20260503025308 5 306 1.6 9.7 0.00 0.36 0.30
20260503024808 5 293 0.0 4.8 0.00 0.38 0.30
20260503024308 6 292 0.0 0.0 0.00 0.38 0.30
20260503023809 6 289 4.8 12.9 0.00 0.38 0.30
20260503022808 5 314 1.6 9.7 0.00 0.38 0.30
20260503021809 5 313 0.0 0.0 0.00 0.38 0.30
20260503021308 6 313 3.2 9.7 0.00 0.38 0.30
20260503020309 5 278 0.0 8.0 0.00 0.38 0.30
20260503015808 5 291 0.0 8.0 0.00 0.38 0.30
20260503015308 5 315 0.0 3.2 0.00 0.38 0.30
20260503014808 5 246 0.0 1.6 0.00 0.38 0.30
20260503014308 5 249 1.6 4.8 0.00 0.38 0.30
20260503013808 5 246 1.6 8.0 0.00 0.38 0.30
20260503013309 5 250 4.8 11.3 0.00 0.38 0.30
20260503012808 5 270 3.2 9.7 0.00 0.38 0.30